Time,TemperatureF,DewpointF,PressureIn,WindDirection,WindDirectionDegrees,WindSpeedMPH,WindSpeedGustMPH,Humidity,HourlyPrecipIn,Conditions,Clouds,dailyrainin,SoftwareType,DateUTC
2013-01-06 00:07:00,33.7,32.0,29.95,WNW,284,0.0,4.0,94,0.00,,,0.00,weatherlink.com 1.10,2013-01-06 05:07:00,
2013-01-06 00:21:00,33.9,32.0,29.95,WNW,294,2.0,4.0,94,0.00,,,0.00,weatherlink.com 1.10,2013-01-06 05:21:00,
2013-01-06 00:36:00,33.9,32.0,29.94,WSW,240,1.0,4.0,93,0.00,,,0.00,weatherlink.com 1.10,2013-01-06 05:36:00,
2013-01-06 00:51:00,33.9,32.0,29.93,West,280,0.0,4.0,93,0.00,,,0.00,weatherlink.com 1.10,2013-01-06 05:51:00,
2013-01-06 01:06:00,33.9,32.0,29.93,SW,226,1.0,2.0,94,0.00,,,0.00,weatherlink.com 1.10,2013-01-06 06:06:00,
2013-01-06 01:21:00,33.9,32.0,29.92,SW,219,1.0,3.0,94,0.00,,,0.00,weatherlink.com 1.10,2013-01-06 06:21:00,
2013-01-06 01:36:00,33.9,32.0,29.91,SE,134,0.0,0.0,94,0.00,,,0.00,weatherlink.com 1.10,2013-01-06 06:36:00,
2013-01-06 01:51:00,33.9,32.0,29.91,SSW,204,0.0,4.0,94,0.00,,,0.00,weatherlink.com 1.10,2013-01-06 06:51:00,
2013-01-06 02:06:00,33.9,32.0,29.91,South,172,0.0,3.0,94,0.00,,,0.00,weatherlink.com 1.10,2013-01-06 07:06:00,
2013-01-06 02:21:00,33.8,32.0,29.90,SW,219,0.0,3.0,94,0.00,,,0.00,weatherlink.com 1.10,2013-01-06 07:21:00,
2013-01-06 02:36:00,33.8,33.0,29.91,SW,236,0.0,2.0,95,0.00,,,0.00,weatherlink.com 1.10,2013-01-06 07:36:00,
2013-01-06 02:51:00,33.8,33.0,29.91,WSW,253,0.0,2.0,95,0.00,,,0.00,weatherlink.com 1.10,2013-01-06 07:51:00,
2013-01-06 03:06:00,33.8,33.0,29.91,South,184,1.0,1.0,95,0.00,,,0.00,weatherlink.com 1.10,2013-01-06 08:06:00,
2013-01-06 03:21:00,33.8,33.0,29.90,West,277,0.0,1.0,95,0.00,,,0.00,weatherlink.com 1.10,2013-01-06 08:21:00,
2013-01-06 03:36:00,33.9,33.0,29.89,SE,135,0.0,2.0,95,0.00,,,0.00,weatherlink.com 1.10,2013-01-06 08:36:00,
2013-01-06 03:52:00,34.0,33.0,29.89,SW,219,0.0,2.0,95,0.00,,,0.00,weatherlink.com 1.10,2013-01-06 08:52:00,
2013-01-06 04:07:00,34.0,33.0,29.89,WSW,252,0.0,0.0,95,0.00,,,0.00,weatherlink.com 1.10,2013-01-06 09:07:00,
2013-01-06 04:22:00,34.1,33.0,29.88,South,174,0.0,2.0,95,0.00,,,0.00,weatherlink.com 1.10,2013-01-06 09:22:00,
2013-01-06 04:37:00,34.1,33.0,29.88,NNE,25,0.0,2.0,95,0.00,,,0.00,weatherlink.com 1.10,2013-01-06 09:37:00,
2013-01-06 04:52:00,34.2,33.0,29.88,SW,233,0.0,2.0,95,0.00,,,0.00,weatherlink.com 1.10,2013-01-06 09:52:00,
2013-01-06 05:07:00,34.3,33.0,29.87,SSW,207,0.0,1.0,95,0.01,,,0.01,weatherlink.com 1.10,2013-01-06 10:07:00,
2013-01-06 05:22:00,34.3,33.0,29.86,SSE,167,0.0,2.0,95,0.01,,,0.01,weatherlink.com 1.10,2013-01-06 10:22:00,
2013-01-06 05:37:00,34.4,33.0,29.86,WSW,242,1.0,3.0,94,0.01,,,0.01,weatherlink.com 1.10,2013-01-06 10:37:00,
2013-01-06 05:52:00,34.4,33.0,29.86,SW,229,1.0,2.0,94,0.01,,,0.01,weatherlink.com 1.10,2013-01-06 10:52:00,
2013-01-06 06:07:00,34.5,33.0,29.86,ESE,120,0.0,3.0,94,0.00,,,0.01,weatherlink.com 1.10,2013-01-06 11:07:00,
2013-01-06 06:22:00,34.5,33.0,29.86,East,98,1.0,2.0,94,0.00,,,0.01,weatherlink.com 1.10,2013-01-06 11:22:00,
2013-01-06 06:37:00,34.5,33.0,29.86,West,274,0.0,2.0,94,0.01,,,0.02,weatherlink.com 1.10,2013-01-06 11:37:00,
2013-01-06 06:52:00,34.6,33.0,29.86,South,188,0.0,1.0,93,0.01,,,0.02,weatherlink.com 1.10,2013-01-06 11:52:00,
2013-01-06 07:07:00,34.6,33.0,29.86,West,263,0.0,2.0,93,0.01,,,0.02,weatherlink.com 1.10,2013-01-06 12:07:00,
2013-01-06 07:22:00,34.6,33.0,29.86,WSW,238,0.0,2.0,93,0.01,,,0.02,weatherlink.com 1.10,2013-01-06 12:22:00,
2013-01-06 07:37:00,34.6,33.0,29.86,WSW,248,0.0,0.0,93,0.00,,,0.02,weatherlink.com 1.10,2013-01-06 12:37:00,
2013-01-06 07:52:00,34.3,33.0,29.87,WSW,245,0.0,0.0,93,0.00,,,0.02,weatherlink.com 1.10,2013-01-06 12:52:00,
2013-01-06 08:07:00,33.8,32.0,29.87,WSW,248,0.0,0.0,94,0.00,,,0.02,weatherlink.com 1.10,2013-01-06 13:07:00,
2013-01-06 08:22:00,33.8,33.0,29.87,SW,235,1.0,2.0,95,0.00,,,0.02,weatherlink.com 1.10,2013-01-06 13:22:00,
2013-01-06 08:37:00,33.8,33.0,29.87,WNW,287,1.0,3.0,95,0.01,,,0.03,weatherlink.com 1.10,2013-01-06 13:37:00,
2013-01-06 08:52:00,33.8,33.0,29.88,SW,218,0.0,2.0,95,0.01,,,0.03,weatherlink.com 1.10,2013-01-06 13:52:00,
2013-01-06 09:07:00,33.9,33.0,29.88,West,281,1.0,2.0,95,0.01,,,0.03,weatherlink.com 1.10,2013-01-06 14:07:00,
2013-01-06 09:22:00,33.8,33.0,29.88,West,280,0.0,0.0,95,0.01,,,0.03,weatherlink.com 1.10,2013-01-06 14:22:00,
2013-01-06 09:37:00,33.7,33.0,29.89,WNW,301,0.0,0.0,95,0.00,,,0.03,weatherlink.com 1.10,2013-01-06 14:37:00,
2013-01-06 09:52:00,33.7,33.0,29.89,WNW,303,2.0,3.0,95,0.00,,,0.03,weatherlink.com 1.10,2013-01-06 14:52:00,
2013-01-06 10:07:00,33.5,32.0,29.90,NW,308,4.0,4.0,95,0.01,,,0.04,weatherlink.com 1.10,2013-01-06 15:07:00,
2013-01-06 10:22:00,33.2,32.0,29.91,WNW,295,2.0,5.0,94,0.01,,,0.04,weatherlink.com 1.10,2013-01-06 15:22:00,
2013-01-06 10:37:00,33.0,32.0,29.92,WNW,290,2.0,5.0,95,0.01,,,0.04,weatherlink.com 1.10,2013-01-06 15:37:00,
2013-01-06 10:52:00,32.9,31.0,29.93,WNW,300,5.0,6.0,94,0.01,,,0.04,weatherlink.com 1.10,2013-01-06 15:52:00,
2013-01-06 11:07:00,32.5,31.0,29.94,WNW,291,6.0,8.0,92,0.00,,,0.04,weatherlink.com 1.10,2013-01-06 16:07:00,
2013-01-06 11:22:00,32.3,30.0,29.94,WNW,282,2.0,7.0,90,0.00,,,0.04,weatherlink.com 1.10,2013-01-06 16:22:00,
2013-01-06 11:37:00,32.2,30.0,29.94,NW,307,3.0,4.0,90,0.00,,,0.04,weatherlink.com 1.10,2013-01-06 16:37:00,
2013-01-06 11:52:00,32.3,30.0,29.95,WNW,283,1.0,4.0,90,0.00,,,0.04,weatherlink.com 1.10,2013-01-06 16:52:00,
2013-01-06 12:07:00,32.3,29.0,29.95,WNW,301,3.0,7.0,88,0.00,,,0.04,weatherlink.com 1.10,2013-01-06 17:07:00,
2013-01-06 12:22:00,32.5,29.0,29.94,WNW,291,2.0,5.0,88,0.00,,,0.04,weatherlink.com 1.10,2013-01-06 17:22:00,
2013-01-06 12:37:00,32.7,29.0,29.95,WNW,300,4.0,6.0,86,0.00,,,0.04,weatherlink.com 1.10,2013-01-06 17:37:00,
2013-01-06 12:52:00,32.8,29.0,29.95,WNW,302,2.0,5.0,86,0.00,,,0.04,weatherlink.com 1.10,2013-01-06 17:52:00,
2013-01-06 13:07:00,32.7,29.0,29.95,NW,307,2.0,7.0,86,0.00,,,0.04,weatherlink.com 1.10,2013-01-06 18:07:00,
2013-01-06 13:22:00,32.7,29.0,29.95,NW,309,3.0,5.0,86,0.00,,,0.04,weatherlink.com 1.10,2013-01-06 18:22:00,
2013-01-06 13:37:00,32.7,29.0,29.95,NW,313,4.0,4.0,87,0.00,,,0.04,weatherlink.com 1.10,2013-01-06 18:37:00,
2013-01-06 13:52:00,33.0,30.0,29.95,NW,305,2.0,5.0,87,0.00,,,0.04,weatherlink.com 1.10,2013-01-06 18:52:00,
2013-01-06 14:07:00,33.3,30.0,29.96,WNW,303,2.0,4.0,87,0.00,,,0.04,weatherlink.com 1.10,2013-01-06 19:07:00,
2013-01-06 14:22:00,33.4,30.0,29.97,WNW,297,2.0,5.0,87,0.00,,,0.04,weatherlink.com 1.10,2013-01-06 19:22:00,
2013-01-06 14:37:00,33.5,30.0,29.98,West,277,1.0,3.0,87,0.01,,,0.05,weatherlink.com 1.10,2013-01-06 19:37:00,
2013-01-06 14:53:00,33.7,30.0,29.99,NW,304,2.0,4.0,87,0.01,,,0.05,weatherlink.com 1.10,2013-01-06 19:53:00,
2013-01-06 15:23:00,33.9,31.0,30.01,WNW,284,1.0,4.0,88,0.01,,,0.05,weatherlink.com 1.10,2013-01-06 20:23:00,
2013-01-06 15:38:00,33.9,31.0,30.02,NW,305,3.0,5.0,88,0.00,,,0.05,weatherlink.com 1.10,2013-01-06 20:38:00,
2013-01-06 16:08:00,34.4,30.0,30.04,NW,308,1.0,6.0,85,0.00,,,0.05,weatherlink.com 1.10,2013-01-06 21:08:00,
2013-01-06 16:23:00,34.3,30.0,30.05,WNW,298,3.0,6.0,85,0.00,,,0.05,weatherlink.com 1.10,2013-01-06 21:23:00,
2013-01-06 16:38:00,34.3,30.0,30.07,NW,315,2.0,6.0,85,0.00,,,0.05,weatherlink.com 1.10,2013-01-06 21:38:00,
2013-01-06 16:53:00,34.2,30.0,30.08,West,281,2.0,5.0,85,0.00,,,0.05,weatherlink.com 1.10,2013-01-06 21:53:00,
2013-01-06 17:08:00,34.0,30.0,30.09,NW,309,1.0,6.0,86,0.00,,,0.05,weatherlink.com 1.10,2013-01-06 22:08:00,
2013-01-06 17:23:00,33.7,30.0,30.10,West,269,1.0,5.0,87,0.00,,,0.05,weatherlink.com 1.10,2013-01-06 22:23:00,
2013-01-06 17:38:00,33.5,30.0,30.11,NW,307,2.0,4.0,88,0.00,,,0.05,weatherlink.com 1.10,2013-01-06 22:38:00,
2013-01-06 17:53:00,33.4,30.0,30.12,NW,313,3.0,4.0,88,0.00,,,0.05,weatherlink.com 1.10,2013-01-06 22:53:00,
2013-01-06 18:08:00,33.5,30.0,30.13,WNW,298,1.0,4.0,88,0.00,,,0.05,weatherlink.com 1.10,2013-01-06 23:08:00,
2013-01-06 18:23:00,33.7,29.0,30.14,WNW,301,3.0,8.0,84,0.00,,,0.05,weatherlink.com 1.10,2013-01-06 23:23:00,
2013-01-06 18:38:00,33.6,29.0,30.16,NW,319,4.0,6.0,83,0.00,,,0.05,weatherlink.com 1.10,2013-01-06 23:38:00,
2013-01-06 18:53:00,33.4,29.0,30.17,NW,315,2.0,4.0,84,0.00,,,0.05,weatherlink.com 1.10,2013-01-06 23:53:00,
2013-01-06 19:08:00,33.3,29.0,30.17,WNW,299,1.0,4.0,83,0.00,,,0.05,weatherlink.com 1.10,2013-01-07 00:08:00,
2013-01-06 19:23:00,33.2,29.0,30.19,WNW,284,2.0,4.0,83,0.00,,,0.05,weatherlink.com 1.10,2013-01-07 00:23:00,
2013-01-06 19:38:00,33.1,29.0,30.20,NW,311,3.0,4.0,83,0.00,,,0.05,weatherlink.com 1.10,2013-01-07 00:38:00,
2013-01-06 19:54:00,33.1,29.0,30.21,NW,305,3.0,5.0,83,0.00,,,0.05,weatherlink.com 1.10,2013-01-07 00:54:00,
2013-01-06 20:08:00,32.9,28.0,30.21,NW,322,3.0,5.0,83,0.00,,,0.05,weatherlink.com 1.10,2013-01-07 01:08:00,
2013-01-06 20:23:00,32.8,28.0,30.21,NW,310,2.0,4.0,82,0.00,,,0.05,weatherlink.com 1.10,2013-01-07 01:23:00,
2013-01-06 20:38:00,32.6,27.0,30.22,WNW,296,1.0,3.0,81,0.00,,,0.05,weatherlink.com 1.10,2013-01-07 01:38:00,
2013-01-06 20:53:00,32.4,27.0,30.22,NW,315,2.0,3.0,81,0.00,,,0.05,weatherlink.com 1.10,2013-01-07 01:53:00,
2013-01-06 21:09:00,32.4,27.0,30.24,WNW,295,2.0,3.0,81,0.00,,,0.05,weatherlink.com 1.10,2013-01-07 02:09:00,
2013-01-06 21:24:00,32.2,27.0,30.24,WNW,299,1.0,4.0,81,0.00,,,0.05,weatherlink.com 1.10,2013-01-07 02:24:00,
2013-01-06 21:39:00,32.1,27.0,30.24,WNW,291,1.0,3.0,81,0.00,,,0.05,weatherlink.com 1.10,2013-01-07 02:39:00,
2013-01-06 21:54:00,32.0,26.0,30.25,WNW,284,1.0,3.0,79,0.00,,,0.05,weatherlink.com 1.10,2013-01-07 02:54:00,
2013-01-06 22:09:00,31.9,26.0,30.25,WNW,288,1.0,2.0,80,0.00,,,0.05,weatherlink.com 1.10,2013-01-07 03:09:00,
2013-01-06 22:24:00,31.9,26.0,30.26,WNW,290,1.0,3.0,79,0.00,,,0.05,weatherlink.com 1.10,2013-01-07 03:24:00,
2013-01-06 22:39:00,31.8,26.0,30.26,WNW,300,1.0,2.0,78,0.00,,,0.05,weatherlink.com 1.10,2013-01-07 03:39:00,
2013-01-06 22:54:00,31.7,26.0,30.25,NW,325,0.0,0.0,78,0.00,,,0.05,weatherlink.com 1.10,2013-01-07 03:54:00,
2013-01-06 23:09:00,31.2,26.0,30.26,NW,325,0.0,0.0,81,0.00,,,0.05,weatherlink.com 1.10,2013-01-07 04:09:00,
2013-01-06 23:24:00,31.0,25.0,30.27,WNW,301,0.0,2.0,77,0.00,,,0.05,weatherlink.com 1.10,2013-01-07 04:24:00,
2013-01-06 23:39:00,30.8,26.0,30.26,WNW,301,0.0,0.0,81,0.00,,,0.05,weatherlink.com 1.10,2013-01-07 04:39:00,
2013-01-06 23:54:00,30.8,26.0,30.27,WNW,301,0.0,0.0,83,0.00,,,0.05,weatherlink.com 1.10,2013-01-07 04:54:00,